Location: El Centro
(32.7920°N, 115.5620°W)
Time: 12:57:05
(UTC-07:00)

Amateur Radio Satellites - All Passes

Search period start: 31 October 2014 12:27
Search period end: 01 November 2014 12:27
Location: El Centro, 32.7920°N, 115.5620°W

Satellite Date Start Highest point End Downlink Frequencies (MHz)
Time Altitude Azimuth
SO-50 31 Oct 12:31:31 12:32:39 11° 314° (NW) 12:33:47 436.795 FM
Uribyol 2 31 Oct 12:45:18 12:46:24 11° 63° (ENE) 12:47:29 436.500 FM
AO-Echo 31 Oct 12:45:48 12:48:04 13° 64° (ENE) 12:50:20 ?
ITAMSAT 1 31 Oct 12:52:21 12:54:18 12° 64° (ENE) 12:56:15 435.822 SSB
Oscar 19 31 Oct 13:00:19 13:05:04 39° 72° (ENE) 13:09:49 437.125 CW, 437.150 USB
UOSAT-12 31 Oct 13:11:12 13:15:30 38° 303° (WNW) 13:19:53 437.025 FM, 437.400 FM
Sapphire 31 Oct 13:20:50 13:24:12 17° 256° (WSW) 13:27:33 437.095 MHz 1200 baud AX-25 AFSK
JAS-1B 31 Oct 13:23:37 13:29:23 62° 74° (ENE) 13:34:59 435.800 - 435.900 CW/SSB
KITSAT 1 31 Oct 13:29:42 13:31:13 11° 324° (NW) 13:32:44 435.175 FM
AO-27 31 Oct 13:36:48 13:41:31 36° 71° (ENE) 13:46:16 436.795 MHz FM
Oscar 16 31 Oct 13:46:58 13:52:04 66° 258° (WSW) 13:57:12 437.025 USB, Beacon 2401.1428
Saudisat 1A 31 Oct 13:50:33 13:53:08 15° 50° (NE) 13:55:43 436.775 MHz
Gurwin Techsat 1B 31 Oct 13:53:09 13:57:30 26° 69° (ENE) 14:01:51 435.225 FM
TMSAT-1 31 Oct 13:59:52 14:03:52 22° 68° (ENE) 14:07:52 436.925 FM
Uribyol 2 31 Oct 14:19:55 14:25:08 78° 257° (WSW) 14:30:23 436.500 FM
AO-Echo 31 Oct 14:21:20 14:26:12 60° 259° (W) 14:31:15 ?
ITAMSAT 1 31 Oct 14:27:57 14:33:08 69° 258° (WSW) 14:38:22 435.822 SSB
Oscar 19 31 Oct 14:40:52 14:44:29 19° 265° (W) 14:48:05 437.125 CW, 437.150 USB
AO-7 31 Oct 14:51:42 14:58:13 27° 61° (ENE) 15:04:45 29.400 - 29.500 MHz
AO-27 31 Oct 15:17:06 15:21:03 22° 264° (W) 15:25:02 436.795 MHz FM
JAS-1B 31 Oct 15:18:25 15:20:29 12° 267° (W) 15:22:31 435.800 - 435.900 CW/SSB
Saudisat 1A 31 Oct 15:28:40 15:32:56 48° 245° (WSW) 15:37:11 436.775 MHz
Gurwin Techsat 1B 31 Oct 15:32:38 15:37:17 31° 263° (W) 15:41:57 435.225 FM
TMSAT-1 31 Oct 15:38:38 15:43:29 37° 262° (W) 15:48:23 436.925 FM
ISS 31 Oct 15:43:27 15:44:00 10° 28° (NNE) 15:44:33 145.800 FM
Uosat F 31 Oct 16:12:50 16:17:46 62° 74° (ENE) 16:22:45 435.120 FM
AO-7 31 Oct 16:42:18 16:50:25 60° 256° (WSW) 16:58:34 29.400 - 29.500 MHz
OPAL 31 Oct 16:49:45 16:51:28 12° 95° (E) 16:53:11 ?
Hamsat 31 Oct 17:16:36 17:20:20 32° 73° (ENE) 17:24:04 145.90 MHz
ISS 31 Oct 17:17:48 17:21:09 82° 44° (NE) 17:24:29 145.800 FM
JAS-2 31 Oct 17:21:42 17:27:45 74° 74° (ENE) 17:34:42 435.800 - 435.900 CW/SSB, 435.910 FM
Oscar 10/S400 31 Oct 17:43:04 18:05:30 75° 186° (S) 03:42:55 145.825 - 145.975 CW/USB, Beacon 145.810 USB
Uosat F 31 Oct 17:55:21 17:56:53 11° 268° (W) 17:58:25 435.120 FM
OPAL 31 Oct 18:25:47 18:30:39 59° 288° (WNW) 18:35:30 ?
STRAND 1 31 Oct 18:44:22 18:48:34 25° 96° (E) 18:52:44 ?
RS-15 31 Oct 18:48:56 18:54:21 15° 100° (E) 18:59:42 29.354 - 29.394 USB, Beacon 29.352 USB
Hamsat 31 Oct 18:53:53 18:56:19 15° 266° (W) 18:58:46 145.90 MHz
JAS-2 31 Oct 19:10:37 19:13:37 14° 272° (W) 19:16:48 435.800 - 435.900 CW/SSB, 435.910 FM
SO-50 31 Oct 19:23:20 19:27:14 23° 53° (NE) 19:31:08 436.795 FM
KITSAT 1 31 Oct 19:24:09 19:31:31 37° 55° (NE) 19:38:50 435.175 FM
SO-67 31 Oct 19:29:19 19:32:34 40° 261° (W) 19:35:49 435.3500 MHz FM
STRAND 1 31 Oct 20:23:14 20:27:41 30° 290° (WNW) 20:32:07 ?
HO-68 31 Oct 20:38:36 20:45:39 66° 72° (ENE) 20:52:45 435.675 MHz FM
RS-15 31 Oct 20:53:57 21:05:02 85° 116° (ESE) 21:15:58 29.354 - 29.394 USB, Beacon 29.352 USB
UKube-1 31 Oct 21:00:33 21:04:12 27° 71° (ENE) 21:07:52 145.840 MHz, 145.915 MHz
SO-50 31 Oct 21:03:24 21:07:50 35° 248° (WSW) 21:12:15 436.795 FM
ZACube-1 31 Oct 21:11:48 21:14:08 14° 68° (ENE) 21:16:27 437.345 MHz
KITSAT 1 31 Oct 21:19:26 21:26:53 43° 251° (WSW) 21:34:20 435.175 FM
Oscar 11 31 Oct 21:34:28 21:38:44 64° 76° (ENE) 21:43:01 145.825 FM, Beacon 2401.500 USB
UOSAT-12 31 Oct 21:44:42 21:49:18 53° 59° (ENE) 21:53:48 437.025 FM, 437.400 FM
FUNcube-1 31 Oct 21:52:23 21:56:38 41° 74° (ENE) 22:00:50 145.950 - 145.970 MHz USB
MaSat-1 31 Oct 21:53:32 21:57:32 65° 293° (WNW) 22:01:09 437.345 MHz
HO-68 31 Oct 22:29:03 22:33:45 19° 266° (W) 22:38:30 435.675 MHz FM
UKube-1 31 Oct 22:37:04 22:40:19 21° 264° (W) 22:43:35 145.840 MHz, 145.915 MHz
ZACube-1 31 Oct 22:45:46 22:50:08 44° 261° (W) 22:54:25 437.345 MHz
AO-40 31 Oct 22:57:18 23:58:34 15° 243° (WSW) 01:31:21 Beacon 2401.320
RS-15 31 Oct 23:10:08 23:18:42 25° 318° (NW) 23:27:19 29.354 - 29.394 USB, Beacon 29.352 USB
UOSAT-12 31 Oct 23:26:52 23:28:55 13° 253° (WSW) 23:30:57 437.025 FM, 437.400 FM
FUNcube-1 31 Oct 23:30:39 23:33:06 14° 266° (W) 23:35:32 145.950 - 145.970 MHz USB
Sapphire 01 Nov 00:33:54 00:35:41 12° 103° (ESE) 00:37:29 437.095 MHz 1200 baud AX-25 AFSK
PCSat 01 Nov 00:53:01 00:57:02 22° 106° (ESE) 01:01:05 145.825 MHz
JAS-1B 01 Nov 01:10:39 01:16:59 27° 98° (E) 01:24:05 435.800 - 435.900 CW/SSB
Oscar 19 01 Nov 01:17:07 01:20:49 20° 95° (E) 01:24:31 437.125 CW, 437.150 USB
AO-27 01 Nov 01:55:11 01:58:46 19° 95° (E) 02:02:19 436.795 MHz FM
Oscar 16 01 Nov 02:03:10 02:08:15 64° 101° (ESE) 02:13:19 437.025 USB, Beacon 2401.1428
Sapphire 01 Nov 02:13:03 02:18:25 70° 296° (WNW) 02:23:50 437.095 MHz 1200 baud AX-25 AFSK
Gurwin Techsat 1B 01 Nov 02:14:49 02:17:43 15° 93° (E) 02:20:35 435.225 FM
TMSAT-1 01 Nov 02:21:42 02:23:33 12° 92° (E) 02:25:24 436.925 FM
AO-Echo 01 Nov 02:32:56 02:38:14 66° 101° (E) 02:43:24 ?
PCSat 01 Nov 02:35:04 02:40:07 40° 300° (WNW) 02:45:13 145.825 MHz
Uribyol 2 01 Nov 02:37:21 02:42:26 55° 101° (E) 02:47:29 436.500 FM
ITAMSAT 1 01 Nov 02:45:26 02:50:36 62° 101° (ESE) 02:55:43 435.822 SSB
Oscar 19 01 Nov 02:55:31 03:00:13 38° 288° (WNW) 03:04:54 437.125 CW, 437.150 USB
JAS-1B 01 Nov 03:00:18 03:07:30 56° 287° (WNW) 03:16:02 435.800 - 435.900 CW/SSB
PANSAT 01 Nov 03:17:37 03:20:52 26° 165° (SSE) 03:24:06 not established
AO-27 01 Nov 03:33:30 03:38:23 42° 288° (WNW) 03:43:14 436.795 MHz FM
Oscar 16 01 Nov 03:44:54 03:47:00 13° 296° (WNW) 03:49:06 437.025 USB, Beacon 2401.1428
RS-15 01 Nov 03:49:57 03:56:49 18° 33° (NNE) 04:03:48 29.354 - 29.394 USB, Beacon 29.352 USB
Gurwin Techsat 1B 01 Nov 03:52:45 03:57:55 54° 287° (WNW) 04:03:04 435.225 FM
TMSAT-1 01 Nov 03:58:34 04:03:50 65° 285° (WNW) 04:09:03 436.925 FM
OPAL 01 Nov 04:00:08 04:02:56 15° 64° (ENE) 04:05:43 ?
AO-Echo 01 Nov 04:13:55 04:16:20 13° 296° (WNW) 04:18:43 ?
Uribyol 2 01 Nov 04:18:33 04:21:23 15° 295° (WNW) 04:24:13 436.500 FM
Uosat F 01 Nov 04:25:34 04:29:51 27° 97° (E) 04:34:05 435.120 FM
ITAMSAT 1 01 Nov 04:27:05 04:29:30 13° 296° (WNW) 04:31:54 435.822 SSB
JAS-2 01 Nov 04:38:09 04:42:30 16° 89° (E) 04:46:42 435.800 - 435.900 CW/SSB, 435.910 FM
AO-7 01 Nov 04:48:39 04:56:56 65° 104° (ESE) 05:05:11 29.400 - 29.500 MHz
PANSAT 01 Nov 04:57:01 05:00:41 43° 177° (S) 05:04:20 not established
Saudisat 1A 01 Nov 05:30:29 05:34:49 65° 300° (WNW) 05:39:11 436.775 MHz
OPAL 01 Nov 05:36:19 05:41:20 55° 257° (WSW) 05:46:18 ?
STRAND 1 01 Nov 05:56:17 06:00:19 24° 68° (ENE) 06:04:21 ?
RS-15 01 Nov 06:00:41 06:11:52 65° 59° (ENE) 06:23:30 29.354 - 29.394 USB, Beacon 29.352 USB
Uosat F 01 Nov 06:04:18 06:08:29 27° 291° (WNW) 06:12:40 435.120 FM
JAS-2 01 Nov 06:20:19 06:28:13 84° 285° (WNW) 06:35:41 435.800 - 435.900 CW/SSB, 435.910 FM
PANSAT 01 Nov 06:37:02 06:40:33 34° 190° (S) 06:44:04 not established
Hamsat 01 Nov 06:41:45 06:45:56 63° 284° (WNW) 06:50:09 145.90 MHz
AO-7 01 Nov 06:42:40 06:49:01 25° 300° (WNW) 06:55:23 29.400 - 29.500 MHz
SO-67 01 Nov 06:57:30 06:59:46 17° 95° (E) 07:02:01 435.3500 MHz FM
STRAND 1 01 Nov 07:34:42 07:39:16 33° 262° (W) 07:43:53 ?
MaSat-1 01 Nov 07:42:12 07:44:35 67° 69° (ENE) 07:46:53 437.345 MHz
JAS-2 01 Nov 08:08:00 08:11:59 15° 301° (WNW) 08:15:54 435.800 - 435.900 CW/SSB, 435.910 FM
HO-68 01 Nov 08:13:55 08:17:30 14° 93° (E) 08:21:05 435.675 MHz FM
RS-15 01 Nov 08:14:10 08:23:27 31° 255° (WSW) 08:33:07 29.354 - 29.394 USB, Beacon 29.352 USB
PANSAT 01 Nov 08:17:59 08:20:15 15° 202° (SSW) 08:22:30 not established
ISS 01 Nov 08:20:49 08:23:25 22° 129° (SE) 08:26:02 145.800 FM
SO-67 01 Nov 08:30:06 08:32:36 19° 288° (WNW) 08:35:06 435.3500 MHz FM
Oscar 11 01 Nov 09:27:43 09:30:26 16° 94° (E) 09:33:09 145.825 FM, Beacon 2401.500 USB
SO-50 01 Nov 09:34:59 09:37:58 18° 109° (ESE) 09:41:00 436.795 FM
KITSAT 1 01 Nov 09:47:06 09:54:39 46° 109° (ESE) 10:02:13 435.175 FM
ISS 01 Nov 09:57:08 09:59:59 26° 323° (NW) 10:02:52 145.800 FM
HO-68 01 Nov 09:58:35 10:05:48 80° 287° (WNW) 10:12:57 435.675 MHz FM
UKube-1 01 Nov 10:28:17 10:32:40 86° 283° (WNW) 10:37:00 145.840 MHz, 145.915 MHz
ZACube-1 01 Nov 10:39:26 10:43:28 47° 99° (E) 10:47:27 437.345 MHz
Oscar 11 01 Nov 11:02:47 11:06:38 32° 287° (WNW) 11:10:29 145.825 FM, Beacon 2401.500 USB
Sapphire 01 Nov 11:05:44 11:10:44 36° 59° (ENE) 11:15:42 437.095 MHz 1200 baud AX-25 AFSK
SO-50 01 Nov 11:14:02 11:18:10 36° 304° (WNW) 11:22:25 436.795 FM
FUNcube-1 01 Nov 11:22:04 11:26:04 47° 285° (WNW) 11:30:03 145.950 - 145.970 MHz USB
PCSat 01 Nov 11:27:01 11:32:24 63° 63° (ENE) 11:37:44 145.825 MHz
KITSAT 1 01 Nov 11:42:53 11:50:06 35° 306° (NW) 11:57:22 435.175 FM
HO-68 01 Nov 11:49:42 11:52:21 12° 303° (WNW) 11:55:00 435.675 MHz FM
UOSAT-12 01 Nov 11:51:30 11:55:52 45° 114° (ESE) 12:00:20 437.025 FM, 437.400 FM
ZACube-1 01 Nov 12:18:18 12:19:23 11° 293° (WNW) 12:20:28 437.345 MHz
